Abakan, Russia

5:04 AM +07 on November 12, 2019 (GMT +0700)
Abakan

Weather History for UNAA - September, 2019

Change the Weather History Date:

Friday, September 6, 2019

  Actual Average Record
Temperature  
Mean Temperature 52 °F -  
Max Temperature 66 °F - - ()
Min Temperature 39 °F - - ()
Degree Days  
Heating Degree Days 12    
Growing Degree Days 2 (Base 50)    
Moisture  
Dew Point 44 °F    
Average Humidity 82    
Maximum Humidity 100    
Minimum Humidity 40    
Precipitation  
Precipitation 0.00 in - - ()
Sea Level Pressure  
Sea Level Pressure 30.04 in    
Wind  
Wind Speed 2 mph ()    
Max Wind Speed 7 mph    
Max Gust Speed -    
Visibility 2.4 miles    
Events Fog    
T = Trace of Precipitation, MM = Missing Value Source: Averaged Metar Reports

Daily Weather History Graph

Daily Weather History Graph

Search for Another Location

Airport or City:

Astronomy

Sep. 06, 2019 Rise Set
Actual Time 6:10 AM +07 7:34 PM +07
Civil Twilight 5:34 AM +07 8:10 PM +07
Nautical Twilight 4:49 AM +07 8:54 PM +07
Astronomical Twilight 4:00 AM +07 9:43 PM +07
Moon 2:54 PM +07 (9/6) 11:04 PM +07 (9/6)
Length of Visible Light 14h 35m
Length of Day
13h 23m
Waxing Crescent, 51% of the Moon is Illuminated
Sep 6
Waxing Crescent
Sep 14
Full
Sep 22
Last Quarter
Sep 29
New
Oct 5
First Quarter

Hourly Weather History & Observations

Time (+07) Temp. Windchill Dew Point Humidity Pressure Visibility Wind Dir Wind Speed Gust Speed Precip Events Conditions
12:00 AM 42.8 °F - 41.0 °F 93% 30.06 in 0.1 mi Calm Calm - N/A Fog Fog
12:30 AM 41.0 °F - 41.0 °F 100% 30.06 in 0.1 mi SW 2.2 mph - N/A   Unknown
1:00 AM 42.8 °F - 42.8 °F 100% 30.06 in 0.1 mi Calm Calm - N/A Fog Fog
1:30 AM 41.0 °F - 41.0 °F 100% 30.04 in 0.2 mi SW 2.2 mph - N/A   Unknown
2:00 AM 42.8 °F - 42.8 °F 100% 30.04 in 1.6 mi Calm Calm - N/A   Mist
2:30 AM 41.0 °F - 41.0 °F 100% 30.04 in 0.6 mi SW 2.2 mph - N/A   Partly Cloudy
3:00 AM 41.0 °F - 39.2 °F 93% 30.04 in 0.0 mi South 2.2 mph - N/A Fog Fog
3:30 AM 41.0 °F - 41.0 °F 100% 30.04 in 0.1 mi Calm Calm - N/A   Unknown
4:00 AM 39.2 °F - 37.4 °F 93% 30.04 in 0.1 mi SSE 2.2 mph - N/A   Scattered Clouds
4:30 AM 39.2 °F - 39.2 °F 100% 30.04 in 0.1 mi Calm Calm - N/A Fog Fog
5:00 AM 41.0 °F - 39.2 °F 93% 30.04 in 0.1 mi South 2.2 mph - N/A Fog Fog
5:30 AM 41.0 °F - 41.0 °F 100% 30.04 in 0.1 mi South 2.2 mph - N/A Fog Fog
6:00 AM 39.2 °F - 39.2 °F 100% 30.04 in 0.1 mi Calm Calm - N/A Fog Fog
7:00 AM 39.2 °F - 39.2 °F 100% 30.06 in 0.1 mi Calm Calm - N/A Fog Fog
8:00 AM 41.0 °F - 41.0 °F 100% 30.06 in 0.4 mi SE 2.2 mph - N/A Fog Fog
8:30 AM 42.8 °F - 42.8 °F 100% 30.06 in 5.0 mi Calm Calm - N/A   Scattered Clouds
9:00 AM 44.6 °F - 44.6 °F 100% 30.06 in 6.2 mi ESE 2.2 mph - N/A   Scattered Clouds
9:30 AM 46.4 °F - 44.6 °F 93% 30.06 in 6.2 mi Calm Calm - N/A   Scattered Clouds
10:00 AM 50.0 °F - 46.4 °F 87% 30.06 in 6.2 mi NNE 4.5 mph - N/A   Partly Cloudy
10:30 AM 51.8 °F - 46.4 °F 82% 30.06 in 6.2 mi NNE 4.5 mph - N/A   Partly Cloudy
11:00 AM 51.8 °F - 46.4 °F 82% 30.06 in 6.2 mi ENE 2.2 mph - N/A   Partly Cloudy
11:30 AM 53.6 °F - 48.2 °F 82% 30.06 in 6.2 mi ENE 4.5 mph - N/A   Partly Cloudy
12:00 PM 55.4 °F - 48.2 °F 77% 30.06 in 6.2 mi Variable 2.2 mph - N/A   Partly Cloudy
12:30 PM 57.2 °F - 48.2 °F 72% 30.04 in - Variable 2.2 mph - N/A   Clear
1:00 PM 57.2 °F - 48.2 °F 72% 30.04 in - Variable 2.2 mph - N/A   Clear
1:30 PM 59.0 °F - 50.0 °F 72% 30.04 in - Variable 2.2 mph - N/A   Clear
2:00 PM 60.8 °F - 50.0 °F 68% 30.04 in - Variable 2.2 mph - N/A   Clear
2:30 PM 62.6 °F - 50.0 °F 63% 30.04 in - Variable 2.2 mph - N/A   Clear
3:00 PM 64.4 °F - 48.2 °F 56% 30.04 in - NNE 4.5 mph - N/A   Clear
3:30 PM 64.4 °F - 48.2 °F 56% 30.04 in - NNE 4.5 mph - N/A   Clear
5:00 PM 66.2 °F - 42.8 °F 43% 30.01 in - NNE 4.5 mph - N/A   Clear
5:30 PM 66.2 °F - 41.0 °F 40% 30.01 in - NNE 4.5 mph - N/A   Clear
6:00 PM 64.4 °F - 42.8 °F 45% 30.04 in - NNE 4.5 mph - N/A   Clear
6:30 PM 62.6 °F - 44.6 °F 52% 30.01 in - North 4.5 mph - N/A   Clear
7:00 PM 60.8 °F - 44.6 °F 55% 30.01 in - North 6.7 mph - N/A   Clear
7:30 PM 57.2 °F - 44.6 °F 63% 30.01 in - North 4.5 mph - N/A   Clear
8:00 PM 55.4 °F - 44.6 °F 67% 30.04 in - NE 4.5 mph - N/A   Clear
8:30 PM 53.6 °F - 46.4 °F 77% 30.04 in - ENE 4.5 mph - N/A   Clear
9:00 PM 50.0 °F - 46.4 °F 87% 30.04 in - North 2.2 mph - N/A   Clear
9:30 PM 48.2 °F - 44.6 °F 87% 30.04 in 4.3 mi NE 2.2 mph - N/A   Unknown
10:00 PM 48.2 °F - 44.6 °F 87% 30.04 in - North 2.2 mph - N/A   Clear
10:30 PM 48.2 °F - 44.6 °F 87% 30.04 in - NW 2.2 mph - N/A   Clear
11:00 PM 46.4 °F 44.4 °F 44.6 °F 93% 30.04 in - West 4.5 mph - N/A   Clear